Flag for Germany Weather past 2 weeks in Bremen, Bremen, Germany

Now
64 °F

Broken clouds.


Feels Like: 64 °F
Forecast: 64 / 82 °F
Wind: 6 mph from East

Location: Bremen Airport

Current Time: Aug 30, 2015 at 12:33:45 PM

Latest Report: Aug 30, 2015 at 12:20 PM


Visibility: N/A

Pressure: 30.07 "Hg

Humidity: 94%

Dew point: 63 °F

Location of BremenLocation

Historic Weather in Bremen — Graph

°F

Bremen temperature yesterday

Maximum temperature yesterday: 73 °F (at 4:50 PM)
Minimum temperature yesterday: 50 °F (at 3:20 AM)
Average temperature yesterday: 62 °F

Past Weeks' High & Low Weather Summary

 TemperatureHumidityPressure
High79 °F (Aug 15, 5:20 PM)100% (Aug 17, 5:20 AM)30.27 "Hg (Aug 17, 5:20 AM)
Low50 °F (Aug 29, 3:20 AM)30% (Aug 22, 1:50 PM)29.56 "Hg (Aug 24, 5:50 PM)
Average65 °F78%29.96 "Hg
* Reported Aug 15 11:20 AM — Aug 30 11:20 AM, Bremen, Weather by CustomWeather, © 2015

Note: Actual official high and low records may vary slightly from our data, if they occured in-between our weather recording intervals... More about our weather records

Advertising

Bremen weather history for previous 24 hours

 ConditionsComfort  
Time TempWeatherWind HumidityBarometerVisibility
11:20 AM
Sun, Aug 30
63 °FThunderstorms. Partly sunny.7 mph94%30.07 "Hg2 mi
10:50 AM63 °FThundershowers. Partly sunny.8 mph94%30.07 "Hg5 mi
10:20 AM63 °FSprinkles. Partly sunny.6 mph94%30.09 "HgN/A
9:50 AM61 °FBroken clouds.5 mph94%30.09 "Hg6 mi
9:20 AM59 °FBroken clouds.6 mph94%30.09 "Hg6 mi
8:50 AM59 °FBroken clouds.2 mph94%30.12 "HgN/A
8:20 AM59 °FThundershowers. Broken clouds.2 mph94%30.09 "Hg6 mi
7:50 AM59 °FThundershowers. Broken clouds.6 mph94%30.09 "Hg5 mi
7:20 AM59 °FThunderstorms. Partly cloudy.8 mph94%30.09 "Hg3 mi
6:50 AM59 °FThundershowers. Partly cloudy.3 mph88%30.12 "HgN/A
6:20 AM57 °FPassing clouds.5 mph94%30.12 "HgN/A
5:50 AM59 °FClear.7 mph88%30.09 "Hg10 mi
5:20 AM59 °FPassing clouds.5 mph88%30.09 "HgN/A
4:50 AM59 °FClear.6 mph88%30.09 "Hg10 mi
4:20 AM61 °FPassing clouds.5 mph83%30.09 "HgN/A
3:50 AM59 °FClear.3 mph94%30.09 "Hg10 mi
3:20 AM57 °FPassing clouds.2 mph94%30.12 "HgN/A
2:50 AM57 °FClear.3 mph88%30.12 "Hg10 mi
2:20 AM57 °FClear.2 mph94%30.12 "Hg10 mi
1:50 AM57 °FPassing clouds.2 mph94%30.12 "HgN/A
1:20 AM59 °FPassing clouds.3 mph94%30.12 "HgN/A
12:50 AM57 °FPassing clouds.1 mph94%30.12 "HgN/A
12:20 AM57 °FFog.1 mph94%30.15 "HgN/A
11:50 PM
Sat, Aug 29
57 °FFog.2 mph88%30.15 "HgN/A
11:20 PM59 °FFog.1 mph88%30.15 "HgN/A
10:50 PM59 °FFog.3 mph88%30.15 "HgN/A
10:20 PM59 °FFog.3 mph88%30.15 "HgN/A
9:50 PM61 °FClear.3 mph83%30.15 "Hg10 mi
9:20 PM63 °FSunny.3 mph77%30.15 "Hg10 mi
8:50 PM64 °FSunny.3 mph73%30.15 "Hg10 mi
8:20 PM66 °FSunny.1 mph68%30.15 "Hg10 mi
7:50 PM70 °FSunny.1 mph57%30.15 "Hg10 mi
7:20 PM70 °FSunny.3 mph60%30.15 "Hg10 mi
6:50 PM72 °FPassing clouds.5 mph50%30.15 "HgN/A
6:20 PM72 °FPassing clouds.5 mph53%30.15 "HgN/A
5:50 PM73 °FScattered clouds.3 mph50%30.15 "HgN/A
5:20 PM72 °FScattered clouds.6 mph50%30.18 "HgN/A
4:50 PM73 °FScattered clouds.8 mph47%30.18 "HgN/A
4:20 PM72 °FScattered clouds.7 mph47%30.18 "HgN/A
3:50 PM72 °FScattered clouds.7 mph47%30.18 "HgN/A
3:20 PM72 °FScattered clouds.8 mph47%30.18 "HgN/A
2:50 PM72 °FScattered clouds.8 mph50%30.21 "HgN/A
2:20 PM70 °FPartly sunny.10 mph53%30.21 "HgN/A
1:50 PM70 °FPartly sunny.8 mph53%30.21 "HgN/A
1:20 PM70 °FScattered clouds.10 mph53%30.21 "HgN/A
12:50 PM68 °FScattered clouds.8 mph56%30.21 "HgN/A
Weather by CustomWeather, © 2015

See weather overviewHow to use our weather pages